Harrisburg, PA

4:30 PM EDT on April 29, 2017 (GMT -0400)
Capital City

Weather History for KCXY - April, 2013

Change the Weather History Date:

Tuesday, April 2, 2013

  Actual Average Record
Temperature  
Mean Temperature 36 °F -  
Max Temperature 44 °F 55 °F 87 °F (1963)
Min Temperature 28 °F 37 °F 22 °F (1964)
Degree Days  
Heating Degree Days 29    
Moisture  
Dew Point 13 °F    
Average Humidity 39    
Maximum Humidity 61    
Minimum Humidity 25    
Precipitation  
Precipitation 0.00 in - - ()
Sea Level Pressure  
Sea Level Pressure 30.08 in    
Wind  
Wind Speed 9 mph (WNW)    
Max Wind Speed 17 mph    
Max Gust Speed 29 mph    
Visibility 10 miles    
Events      
Averages and records for this station are not official NWS values.
T = Trace of Precipitation, MM = Missing Value Source: NWS Daily Summary

Daily Weather History Graph

Daily Weather History Graph

Search for Another Location

Airport or City:

Trip Planner

Search our weather history database for the weather conditions in past years. The results will help you decide how hot, cold, wet, or windy it might be!

Date:

Astronomy

Apr. 02, 2013 Rise Set
Actual Time 6:49 AM EDT 7:33 PM EDT
Civil Twilight 6:21 AM EDT 8:00 PM EDT
Nautical Twilight 5:49 AM EDT 8:33 PM EDT
Astronomical Twilight 5:15 AM EDT 9:06 PM EDT
Moon 1:36 AM EDT (4/2) 11:37 AM EDT (4/2)
Length of Visible Light 13h 38m
Length of Day
12h 43m
Waning Gibbous, 56% of the Moon is Illuminated
Apr 2
Waning Gibbous
Apr 3
Last Quarter
Apr 10
New
Apr 18
First Quarter
Apr 25
Full

Hourly Weather History & Observations

Time (EDT) Temp. Windchill Dew Point Humidity Pressure Visibility Wind Dir Wind Speed Gust Speed Precip Events Conditions
12:56 AM 36.0 °F 30.3 °F 10.0 °F 34% 30.00 in 10.0 mi NW 6.9 mph - N/A   Clear
1:56 AM 30.9 °F 27.5 °F 16.0 °F 54% 30.01 in 10.0 mi WSW 3.5 mph - N/A   Overcast
2:56 AM 30.9 °F 26.2 °F 16.0 °F 54% 30.01 in 10.0 mi West 4.6 mph - N/A   Mostly Cloudy
3:56 AM 30.9 °F 26.2 °F 16.0 °F 54% 30.01 in 10.0 mi WSW 4.6 mph - N/A   Overcast
4:56 AM 28.9 °F 25.2 °F 17.1 °F 61% 30.01 in 10.0 mi West 3.5 mph - N/A   Partly Cloudy
5:56 AM 28.9 °F 22.8 °F 17.1 °F 61% 30.03 in 10.0 mi WSW 5.8 mph - N/A   Mostly Cloudy
6:56 AM 32.0 °F 25.6 °F 15.1 °F 50% 30.05 in 10.0 mi West 6.9 mph - N/A   Mostly Cloudy
7:56 AM 34.0 °F 25.5 °F 15.1 °F 46% 30.09 in 10.0 mi WNW 11.5 mph - N/A   Partly Cloudy
8:56 AM 35.1 °F 25.9 °F 14.0 °F 42% 30.12 in 10.0 mi WNW 13.8 mph 20.7 mph N/A   Mostly Cloudy
9:56 AM 36.0 °F 27.1 °F 14.0 °F 41% 30.12 in 10.0 mi West 13.8 mph 19.6 mph 0.00 in   Mostly Cloudy
10:56 AM 37.0 °F 28.5 °F 12.0 °F 36% 30.12 in 10.0 mi NW 13.8 mph 26.5 mph N/A   Scattered Clouds
11:56 AM 39.0 °F 30.6 °F 12.0 °F 33% 30.12 in 10.0 mi WNW 15.0 mph 24.2 mph N/A   Partly Cloudy
12:56 PM 39.0 °F 30.6 °F 12.0 °F 33% 30.10 in 10.0 mi WSW 15.0 mph 19.6 mph N/A   Overcast
1:56 PM 42.1 °F 34.2 °F 12.0 °F 29% 30.08 in 10.0 mi NW 16.1 mph 21.9 mph N/A   Mostly Cloudy
2:56 PM 43.0 °F 37.7 °F 10.9 °F 27% 30.07 in 10.0 mi WNW 9.2 mph 20.7 mph N/A   Scattered Clouds
3:56 PM 44.1 °F 38.1 °F 10.9 °F 26% 30.05 in 10.0 mi NW 11.5 mph 20.7 mph N/A   Partly Cloudy
4:56 PM 44.1 °F 39.0 °F 10.0 °F 25% 30.06 in 10.0 mi WNW 9.2 mph 24.2 mph N/A   Partly Cloudy
5:56 PM 43.0 °F 35.4 °F 10.0 °F 26% 30.08 in 10.0 mi NW 16.1 mph 26.5 mph N/A   Clear
6:56 PM 42.1 °F 33.9 °F 10.0 °F 27% 30.10 in 10.0 mi NW 17.3 mph 28.8 mph N/A   Clear
7:56 PM 39.0 °F 31.4 °F 10.9 °F 32% 30.12 in 10.0 mi WNW 12.7 mph 21.9 mph N/A   Clear
10:56 PM 35.1 °F 31.0 °F 12.0 °F 39% 30.17 in 10.0 mi West 4.6 mph - N/A   Partly Cloudy
11:56 PM 36.0 °F 29.6 °F 12.0 °F 37% 30.17 in 10.0 mi NW 8.1 mph - N/A   Clear